[[{"header":{"parameterUnit":"m.s-1","parameterCategory":1,"la1":30.2991,"la2":30.254,"lo1":-89.0895,"lo2":-89.0444,"dy":0.0017,"dx":0.0017,"nx":28,"ny":28,"refTime":"2024-10-21T03:00:00:Z","depth":0,"parameterNumber":2,"parameterNumberName":"U-component_of_WINDS"},"data":[0,0,0,0,0,0,0,0,0,0,0,0,0,0,0,0,0,0,0,0,0,0,0,0,0,0,0,0,0,0,0,0,0,0,0,0,0,0,0,0,0,0,0,0,0,0,0,0,0,0,0,0,0,0,0,0,0,0,-0.6258,-0.6257,0,-0.6187,-0.6187,-0.6186,-0.6101,-0.61,-0.6098,-0.6097,-0.6026,-0.6025,-0.6024,0,0,0,0,0,0,0,0,0,0,0,0,0,-0.6322,-0.6321,-0.6258,-0.6257,-0.6256,-0.6188,-0.6187,-0.6186,-0.6101,-0.6099,-0.6098,-0.6096,-0.6026,-0.6025,-0.6024,0,0,0,0,0,0,0,0,0,0,0,0,0,-0.6277,-0.6321,-0.6258,-0.6206,-0.62,-0.6188,-0.6187,-0.6185,-0.6101,-0.6099,-0.6097,-0.6096,-0.6026,-0.6025,-0.6024,-0.6058,0,0,-0.6021,-0.6021,0,0,0,0,0,0,0,0,-0.628,-0.6275,-0.6214,-0.6209,-0.6203,-0.6151,-0.6183,-0.6143,-0.6102,-0.6139,-0.6097,-0.6095,-0.6069,-0.6064,-0.6056,-0.6054,-0.6051,-0.6021,-0.6021,-0.602,-0.602,0,0,0,0,0,0,0,-0.6283,-0.6278,-0.623,-0.6214,-0.6207,-0.6187,-0.6178,-0.6175,-0.6116,-0.6136,-0.6129,-0.6122,-0.6066,-0.6057,-0.6053,-0.605,-0.6021,-0.602,-0.602,-0.6019,-0.6076,-0.6078,0,0,0,0,0,0,-0.6294,-0.6281,-0.6232,-0.6228,-0.6237,-0.6187,-0.6177,-0.617,-0.6116,-0.6106,-0.6124,-0.6118,-0.6059,-0.6055,-0.605,-0.6088,-0.602,-0.6019,-0.6019,-0.6073,-0.6076,-0.6078,0,0,0,0,0,0,-0.6296,-0.629,-0.6235,-0.6253,-0.6244,-0.6188,-0.618,-0.6169,-0.616,-0.6107,-0.6096,-0.6125,-0.6058,-0.6052,-0.6057,-0.6084,-0.6019,-0.6018,-0.6071,-0.6074,-0.6077,-0.6162,0,0,0,0,0,0,-0.6298,-0.6291,-0.6303,-0.6253,-0.6243,-0.6243,-0.6182,-0.6169,-0.6159,-0.6151,-0.6106,-0.6096,-0.6056,-0.6059,-0.6056,-0.6081,-0.6017,-0.6068,-0.6072,-0.6076,-0.6156,-0.6167,-0.6177,0,0,0,0,0,-0.63,-0.6329,-0.6304,-0.6299,-0.6257,-0.6244,-0.6239,-0.6191,-0.6161,-0.6173,-0.6139,-0.6098,-0.6081,-0.606,-0.6056,-0.6082,-0.6066,-0.6071,-0.6076,-0.6152,-0.6165,-0.6177,0,0,0,0,0,0,-0.6383,-0.6322,-0.6293,-0.6307,-0.6282,-0.623,-0.6243,-0.6207,-0.6189,-0.6183,-0.6125,-0.6116,-0.6128,-0.6105,-0.6083,-0.6112,-0.6068,-0.6072,-0.6127,-0.6139,-0.615,-0.6155,-0.6016,0,0,0,0,0,-0.6403,-0.6398,-0.6344,-0.6362,-0.6351,-0.63,-0.6292,-0.6258,-0.623,-0.6218,-0.6185,-0.6159,-0.6148,-0.6142,-0.6129,-0.6152,-0.6142,-0.6168,-0.6178,-0.6187,-0.6192,-0.6204,-0.6216,-0.6094,-0.6094,-0.6094,0,0,-0.6444,-0.641,-0.641,-0.6378,-0.6354,-0.6351,-0.6291,-0.6289,-0.6287,-0.6218,-0.6221,-0.6196,-0.6164,-0.6179,-0.6183,-0.616,-0.6223,-0.6193,-0.62,-0.62,-0.621,-0.6222,-0.6232,-0.6097,-0.6096,-0.6096,0,0,-0.6518,-0.6491,-0.6503,-0.6481,-0.6446,-0.6412,-0.6415,-0.6369,-0.635,-0.6352,-0.6301,-0.6298,-0.628,-0.626,-0.6247,-0.6315,-0.6277,-0.6312,-0.6366,-0.6379,-0.6389,-0.6397,-0.6423,-0.6433,-0.6317,-0.6317,-0.6317,0,-0.6574,-0.6566,-0.6514,-0.6516,-0.6505,-0.6443,-0.6456,-0.6436,-0.6399,-0.6393,-0.6367,-0.6345,-0.6318,-0.6329,-0.6346,-0.6337,-0.634,-0.6317,-0.6391,-0.6399,-0.6406,-0.643,-0.644,-0.6322,-0.6321,-0.6321,-0.632,0,-0.6637,-0.6633,-0.6647,-0.6613,-0.6603,-0.661,-0.6561,-0.6557,-0.6524,-0.6493,-0.6497,-0.6464,-0.6444,-0.6444,-0.6411,-0.645,-0.6437,-0.6402,-0.6356,-0.6423,-0.6445,-0.6454,-0.6328,-0.6327,-0.6325,-0.6324,0,0,-0.676,-0.6699,-0.6705,-0.669,-0.6647,-0.6643,-0.6649,-0.6629,-0.6628,-0.6605,-0.6609,-0.6596,-0.6564,-0.655,-0.6515,-0.6526,-0.6585,-0.649,-0.6489,-0.651,-0.6628,-0.6655,-0.6666,-0.6559,-0.6561,-0.6562,-0.6631,0,-0.6827,-0.6833,-0.6787,-0.6806,-0.6802,-0.6744,-0.6749,-0.6724,-0.6696,-0.6689,-0.6658,-0.6651,-0.6608,-0.66,-0.6608,-0.6576,-0.6608,-0.657,-0.6564,-0.6564,-0.6575,-0.6677,-0.6706,-0.6772,-0.6639,-0.664,-0.6641,0,-0.6906,-0.6887,-0.6906,-0.6864,-0.6861,-0.6866,-0.6846,-0.684,-0.6811,-0.679,-0.6775,-0.6735,-0.6739,-0.6695,-0.6701,-0.6677,-0.6671,-0.6655,-0.6657,-0.6655,-0.6608,-0.668,-0.6792,-0.6803,-0.6654,-0.6653,-0.6652,0,-0.6996,-0.6976,-0.6985,-0.6973,-0.6924,-0.693,-0.691,-0.6879,-0.6871,-0.6853,-0.6848,-0.6831,-0.6822,-0.681,-0.6768,-0.6739,-0.6779,-0.6731,-0.6763,-0.6764,-0.6774,-0.6774,-0.6889,-0.6769,-0.6769,-0.6769,-0.6769,0,-0.7076,-0.709,-0.7025,-0.703,-0.7045,-0.6993,-0.7009,-0.6983,-0.6957,-0.6957,-0.6905,-0.6907,-0.685,-0.6846,-0.6812,-0.6823,-0.6819,-0.6803,-0.6794,-0.6808,-0.6811,-0.6805,-0.68,-0.6771,-0.6771,-0.677,-0.677,0,-0.718,-0.7136,-0.7142,-0.7096,-0.7085,-0.7098,-0.7058,-0.7062,-0.7031,-0.7032,-0.703,-0.6981,-0.6974,-0.693,-0.6912,-0.689,-0.6913,-0.6894,-0.6923,-0.6917,-0.6952,-0.695,-0.7068,-0.7081,-0.6952,-0.6954,-0.6955,0,-0.7234,-0.7243,-0.7198,-0.7195,-0.7177,-0.7172,-0.7164,-0.7114,-0.7107,-0.7077,-0.7085,-0.7073,-0.7061,-0.7052,-0.7016,-0.7003,-0.6984,-0.7026,-0.6982,-0.6997,-0.6987,-0.6987,-0.6989,-0.7036,-0.7038,-0.7039,-0.704,0,-0.7336,-0.7314,-0.7304,-0.7287,-0.7279,-0.7263,-0.7244,-0.7244,-0.7189,-0.7184,-0.7176,-0.7167,-0.7149,-0.7139,-0.712,-0.71,-0.7062,-0.7055,-0.7062,-0.7077,-0.7094,-0.7087,-0.6951,-0.7052,-0.7051,-0.705,-0.705,-0.7049,-0.7417,-0.7424,-0.7394,-0.7384,-0.7365,-0.7349,-0.7351,-0.732,-0.7312,-0.7294,-0.7265,-0.7262,-0.7234,-0.7205,-0.7189,-0.7186,-0.7163,-0.7173,-0.7176,-0.7179,-0.7187,-0.7093,-0.7182,-0.7182,-0.7181,-0.7181,-0.7181,0,-0.7518,-0.7496,-0.7488,-0.7463,-0.7457,-0.7421,-0.7398,-0.7396,-0.7393,-0.7371,-0.736,-0.7352,-0.7342,-0.7306,-0.7293,-0.7298,-0.728,-0.7296,-0.7296,-0.7292,-0.7207,-0.7203,-0.7311,-0.7311,-0.7311,-0.7311,-0.7311,-0.7311,-0.757,-0.7579,-0.7554,-0.7554,-0.7532,-0.7528,-0.7519,-0.7504,-0.7486,-0.748,-0.7471,-0.7447,-0.742,-0.7405,-0.7395,-0.7384,-0.7383,-0.7405,-0.7389,-0.7311,-0.7298,-0.7286,-0.7282,-0.7405,-0.7405,-0.7475,-0.7476,-0.7476]},{"header":{"parameterUnit":"m.s-1","parameterCategory":1,"la1":30.2991,"la2":30.254,"lo1":-89.0895,"lo2":-89.0444,"dy":0.0017,"dx":0.0017,"nx":28,"ny":28,"refTime":"2024-10-21T03:00:00:Z","depth":0,"parameterNumber":3,"parameterNumberName":"V-component_of_WINDS"},"data":[0,0,0,0,0,0,0,0,0,0,0,0,0,0,0,0,0,0,0,0,0,0,0,0,0,0,0,0,0,0,0,0,0,0,0,0,0,0,0,0,0,0,0,0,0,0,0,0,0,0,0,0,0,0,0,0,0,0,1.0581,1.0581,0,1.0568,1.0568,1.0568,1.0622,1.0624,1.0625,1.0627,1.0607,1.0605,1.0603,0,0,0,0,0,0,0,0,0,0,0,0,0,1.065,1.0648,1.0582,1.0581,1.0581,1.0568,1.0568,1.0567,1.0622,1.0624,1.0626,1.0628,1.0608,1.0605,1.0603,0,0,0,0,0,0,0,0,0,0,0,0,0,1.0626,1.0648,1.0582,1.0607,1.0609,1.0568,1.0568,1.0567,1.0622,1.0624,1.0626,1.0629,1.0608,1.0605,1.0602,1.0534,0,0,1.0593,1.0592,0,0,0,0,0,0,0,0,1.0628,1.0624,1.0603,1.0605,1.0607,1.0599,1.0584,1.0556,1.0621,1.0617,1.0627,1.063,1.0602,1.06,1.0591,1.0533,1.0532,1.0593,1.0591,1.0589,1.0589,0,0,0,0,0,0,0,1.0629,1.0625,1.0576,1.0603,1.0605,1.0617,1.0617,1.0579,1.0595,1.0617,1.0621,1.0619,1.0604,1.0594,1.0591,1.0532,1.0593,1.059,1.0588,1.0587,1.0417,1.0414,0,0,0,0,0,0,1.0628,1.0626,1.0576,1.0576,1.0624,1.0614,1.0613,1.0599,1.0596,1.0598,1.0617,1.0622,1.0598,1.0595,1.0591,1.051,1.0589,1.0587,1.0585,1.0419,1.0416,1.0413,0,0,0,0,0,0,1.0629,1.0623,1.0577,1.0602,1.0597,1.061,1.0594,1.0598,1.0589,1.0596,1.0599,1.0605,1.06,1.0595,1.0548,1.051,1.0585,1.0582,1.0422,1.0418,1.0415,1.0348,0,0,0,0,0,0,1.0631,1.0623,1.0599,1.0601,1.0595,1.0536,1.0592,1.0596,1.0584,1.059,1.0585,1.0587,1.0602,1.0553,1.0545,1.0507,1.058,1.0426,1.0421,1.0416,1.0353,1.0342,1.0332,0,0,0,0,0,1.0633,1.0579,1.0597,1.0591,1.0565,1.0533,1.053,1.055,1.0581,1.0555,1.056,1.0587,1.0516,1.0547,1.0539,1.05,1.0428,1.0422,1.0416,1.0358,1.0344,1.0332,0,0,0,0,0,0,1.057,1.058,1.06,1.0545,1.0538,1.0543,1.0511,1.0535,1.0517,1.0523,1.0547,1.0545,1.0494,1.0493,1.0527,1.0433,1.0477,1.0469,1.0436,1.0422,1.0412,1.0412,1.0577,0,0,0,0,0,1.055,1.0525,1.0535,1.0486,1.0481,1.0497,1.0484,1.05,1.0493,1.049,1.0491,1.0481,1.0457,1.044,1.0418,1.0355,1.0353,1.0323,1.0313,1.0304,1.0296,1.0261,1.0247,1.0393,1.0393,1.0394,0,0,1.0507,1.051,1.0493,1.0473,1.0469,1.0441,1.0494,1.0462,1.0441,1.0484,1.044,1.0441,1.0432,1.0376,1.0351,1.0373,1.0256,1.0296,1.0289,1.0286,1.0253,1.0239,1.0227,1.0389,1.039,1.0391,0,0,1.0416,1.0416,1.0375,1.0371,1.0366,1.0377,1.0367,1.0368,1.0371,1.0327,1.0359,1.0334,1.0292,1.0283,1.0274,1.018,1.0204,1.0173,1.0116,1.0081,1.007,1.006,1.0024,1.0011,1.0165,1.0165,1.0165,0,1.0363,1.0324,1.035,1.0316,1.0306,1.0347,1.0304,1.0298,1.0285,1.0276,1.0302,1.025,1.0247,1.0189,1.0166,1.0158,1.0145,1.0172,1.007,1.006,1.0051,1.0017,1.0004,1.0161,1.0162,1.0162,1.0162,0,1.0258,1.023,1.0197,1.0186,1.0172,1.0134,1.0153,1.0135,1.0153,1.0161,1.0115,1.0114,1.0092,1.008,1.0096,1.0024,1.0038,1.0066,1.011,1.0032,1.0001,0.9988,1.0155,1.0157,1.0158,1.0159,0,0,1.0123,1.0128,1.0115,1.011,1.0108,1.0086,1.005,1.0031,1.0014,1.0005,0.9973,0.9937,0.9964,0.9953,0.9969,0.9939,0.9863,0.9972,0.9972,0.9949,0.9781,0.9757,0.9742,0.988,0.9878,0.9876,0.9781,0,1.0031,0.997,0.9993,0.9929,0.9903,0.9942,0.991,0.9905,0.9911,0.9889,0.9896,0.9869,0.9908,0.9901,0.9874,0.9878,0.9829,0.9886,0.9848,0.9846,0.9846,0.9726,0.9701,0.9611,0.9769,0.9767,0.9766,0,0.9915,0.9902,0.9836,0.984,0.9829,0.98,0.9784,0.9763,0.9757,0.9764,0.9753,0.9776,0.9738,0.9785,0.9732,0.977,0.9756,0.9757,0.9754,0.9748,0.9799,0.9715,0.9583,0.9569,0.9747,0.9749,0.975,0,0.982,0.9787,0.9743,0.9738,0.9741,0.9719,0.9719,0.9716,0.9703,0.9689,0.968,0.9661,0.9649,0.9633,0.965,0.9683,0.9594,0.9642,0.9596,0.9595,0.9573,0.9573,0.9434,0.9569,0.9569,0.9569,0.957,0,0.9713,0.9671,0.97,0.9673,0.9626,0.9653,0.9606,0.961,0.9607,0.958,0.9613,0.9586,0.9611,0.9586,0.9599,0.9552,0.9548,0.955,0.9554,0.9546,0.9545,0.9535,0.954,0.9566,0.9567,0.9567,0.9568,0,0.9598,0.9616,0.9571,0.9578,0.9579,0.9544,0.9549,0.9523,0.9534,0.9499,0.9492,0.9507,0.9479,0.9496,0.9467,0.9476,0.9414,0.9427,0.9416,0.9419,0.9371,0.9374,0.9218,0.9198,0.9348,0.9346,0.9345,0,0.9527,0.9495,0.95,0.9485,0.9483,0.9459,0.9447,0.9472,0.9457,0.9449,0.9423,0.9399,0.9381,0.9335,0.9342,0.932,0.9332,0.9279,0.9328,0.9321,0.9328,0.9328,0.9324,0.9267,0.9265,0.9264,0.9263,0,0.9398,0.941,0.9391,0.9375,0.936,0.9349,0.934,0.9325,0.9351,0.9332,0.9306,0.9292,0.9264,0.9239,0.9221,0.9219,0.9243,0.9248,0.9236,0.9225,0.9219,0.9219,0.9386,0.925,0.9252,0.9253,0.9253,0.9254,0.9301,0.9275,0.9274,0.9252,0.9249,0.924,0.9216,0.9224,0.9203,0.9183,0.92,0.9167,0.9162,0.9141,0.9136,0.911,0.9131,0.9114,0.9109,0.9103,0.9096,0.9226,0.9107,0.9107,0.9108,0.9108,0.9108,0,0.9172,0.9175,0.9154,0.9142,0.9124,0.9153,0.9145,0.9128,0.91,0.9094,0.9076,0.9045,0.9021,0.9027,0.9006,0.8983,0.8994,0.8977,0.8977,0.8975,0.9079,0.9091,0.8968,0.8968,0.8968,0.8968,0.8968,0.8968,0.9103,0.9059,0.9071,0.9025,0.9027,0.8998,0.899,0.8982,0.8977,0.8942,0.8923,0.8928,0.8927,0.8905,0.8884,0.8886,0.8875,0.8853,0.8859,0.8955,0.8968,0.8981,0.8992,0.8851,0.8851,0.8757,0.8756,0.8755]}]]